Regional Weather Roundup
Issued by NWS Boston, MA

Home | Current Version | Previous Version | Text Only | Print | Product List | Glossary On
Versions: 1 2 3 4 5 6 7 8 9 10 11 12 13 14 15 16 17 18 19 20 21 22 23 24 25 26 27 28 29 30 31 32 33 34 35 36 37 38 39 40 41 42 43 44 45 46 47 48 49 50
737
ASUS41 KBOX 112010
RWRBOX

REGIONAL WEATHER ROUNDUP
NATIONAL WEATHER SERVICE TAUNTON MA
300 PM EST THU FEB 11 2016

NOTE:  "FAIR" INDICATES FEW OR NO CLOUDS BELOW 12,000 FEET WITH NO
SIGNIFICANT WEATHER AND/OR OBSTRUCTIONS TO VISIBILITY.  THE FOLLOWING
OBSERVATION LOCATIONS DO NOT REPORT PRESENT WEATHER...PROVINCETOWN...
SMITHFIELD...BLOCK ISLAND...KEENE...AND OXFORD.

MAZALL-112100-
EASTERN MASSACHUSETTS

CITY           SKY/WX    TMP DP  RH WIND       PRES   REMARKS
BOSTON         CLOUDY    24   3  40 W21       29.73R WCI   9
BEVERLY        CLOUDY    24   5  44 W21G28    29.70R WCI   9
LAWRENCE       LGT SNOW  22  12  65 W13G26    29.73R WCI  10
BEDFORD        PTSUNNY   24   1  36 NW17G25   29.72R WCI  11
BLUE HILL        N/A     23   1  38 W21G32    29.68R WCI   8
NORWOOD        CLOUDY    25   1  35 W21       29.74R WCI  11
MARSHFIELD       N/A     28   7  40 NW9G18    29.75R WCI  20
PLYMOUTH       CLOUDY    24   4  42 W17G31    29.73R WCI  11
TAUNTON        CLOUDY    26  -2  29 W14G23    29.75R WCI  14
NEW BEDFORD    CLOUDY    24   1  36 NW15G28   29.75R WCI  11
$$

MAZALL-112100-
CAPE COD AND THE ISLANDS

CITY           SKY/WX    TMP DP  RH WIND       PRES   REMARKS
FALMOUTH       MOSUNNY   25   7  46 W20G29    29.73R WCI  11
HYANNIS        CLOUDY    28   9  44 W16G25    29.70R WCI  16
CHATHAM        FLURRIES  26  12  55 W10G23    29.72R WCI  16
PROVINCETOWN   MIX PCPN  26  15  63 W20G32    29.72R WCI  12
NANTUCKET      CLOUDY    27  14  58 W20G28    29.73S WCI  13
MARTHAS VNYRD  PTSUNNY   26   5  40 W14G24    29.75R WCI  14
$$

MAZALL-112100-
CENTRAL AND WESTERN MASSACHUSETTS

CITY           SKY/WX    TMP DP  RH WIND       PRES   REMARKS
WORCESTER      FLURRIES  17   0  47 W20G31    29.70R WCI   1
FITCHBURG      CLOUDY    23   3  42 W18G30    29.74R WCI   9
ORANGE         PTSUNNY   19   1  45 NW20G29   29.76R WCI   3
SPRINGFIELD    MOSUNNY   21   4  47 NW24      29.79R WCI   4
WESTFIELD      PTSUNNY   19   4  51 NW20G26   29.82R WCI   3
NORTH ADAMS    CLOUDY    15  -4  42 W17G31    29.81R WCI  -1
PITTSFIELD     LGT SNOW  12   2  64 W20G32    29.76R WCI  -6
$$

RIZALL-112100-
RHODE ISLAND

CITY           SKY/WX    TMP DP  RH WIND       PRES   REMARKS
PROVIDENCE     PTSUNNY   24  -1  33 NW14G25   29.78R WCI  12
NEWPORT        MOSUNNY   24   3  40 W14G25    29.77R WCI  12
BLOCK ISLAND   CLOUDY    25   7  46 NW20G30   29.78R WCI  11
SMITHFIELD     MOSUNNY   21   0  39 W15G31    29.73R WCI   8
WESTERLY       CLOUDY    25  -1  32 W15G24    29.81R WCI  13
$$

CTZALL-112100-
CONNECTICUT

CITY           SKY/WX    TMP DP  RH WIND       PRES   REMARKS
BRADLEY INTL   PTSUNNY   22   3  44 W18G26    29.81R WCI   7
HARTFORD       FLURRIES  23   8  52 NW13G21   29.84R WCI  11
BRIDGEPORT     CLOUDY    24   1  36 W26G38    29.86R WCI   8
DANBURY        CLOUDY    21  -2  36 W13G28    29.86R WCI   9
GROTON         CLOUDY    24   3  40 W20G35    29.81R WCI  10
NEW HAVEN      CLOUDY    25   5  42 NW15G26   29.86R WCI  13
CHESTER        PTSUNNY   23   1  39 NW10G21   29.81R WCI  12
MERIDEN        CLOUDY    23   1  38 NW15G26   29.84R WCI  10
WILLIMANTIC    LGT SNOW  21   8  57 W9G25     29.81R WCI  11
OXFORD         PTSUNNY   19  -6  32 NW10G24   29.81R WCI   8
$$

MEZ002-015-021-024-NHZ003-005-008-011-012-014-VTZ005-008-112100-
NORTHERN NEW ENGLAND

CITY           SKY/WX    TMP DP  RH WIND       PRES   REMARKS
PORTLAND ME    LGT SNOW  26  18  71 NW14      29.65R WCI  14
BANGOR ME      LGT SNOW  25  15  66 NW12      29.61R WCI  14
CONCORD NH     LGT SNOW  23  11  60 NW8       29.69S WCI  14
MANCHESTER NH  CLOUDY    24   8  50 NW17      29.70R WCI  11
NASHUA NH      CLOUDY    25   3  39 W13       29.72R WCI  13
PORTSMOUTH NH  CLOUDY    24  11  57 W15G23    29.67R WCI  12
JAFFREY NH     MIX PCPN  17   1  49 W14G22    29.68S WCI   3
KEENE NH       PTSUNNY   19  -2  38 W15G31    29.75R WCI   5
BURLINGTON VT  PTSUNNY   15  -2  46 NW21      29.82R WCI  -2
MT. WASHINGTON FOG       -6  -6 100 W30         N/A  VSB 1/16WCI -34
$$

NYZ052-076-112100-
EASTERN NEW YORK

CITY           SKY/WX    TMP DP  RH WIND       PRES   REMARKS
ALBANY         PTSUNNY   17  -4  39 W26G43    29.89R WCI  -2
NEW YORK CITY  PTSUNNY   26   4  38 NW23G33   29.92R WCI  11
$$

ANZALL-112100-
MARINE OBSERVATIONS

STATION/POSITION TIME  TEMP    WIND        PRES    VSBY  WAVE
                       AIR SEA DIR/SP/G                  HT/PER
                 (UTC) (F)     (DEG/KT/KT) (MB)    (MI)  (FT/S)
BOSTON BUOY      1950   26 41  270/ 23/ 27 1005.3R         3/ 4
BUZZARDS BAY     1900          290/ 26/ 30 1007.4R
NANTUCKET SOUND  1950   29 40  280/ 21/ 27 1005.9R         3/ 5
MASS BAY-STELLWA 1904   26 41  290/ 21/ 25   N/A    1 7/8  3/ 4
ISLE OF SHOALS   2000   24     290/ 32/ 35 1003.2F
S OF BLOCK IS    NOT AVBL
$$

......................KEY.........................
  SKY/WX - SKY CONDITION/PRESENT WEATHER
  TMP    - TEMPERATURE IN FAHRENHEIT
  DWPT   - DEWPOINT IN FAHRENHEIT
  RH     - RELATIVE HUMIDITY IN PERCENT
  WIND   - DIRECTION AND SPEED IN MPH
  PRES   - MEAN SEA LEVEL PRESSURE IN INCHES OF HG
  WCI    - WIND CHILL INDEX
  VSB    - VISIBILITY IN MILES
  HX     - HEAT INDEX
  TC     - TEMPERATURE IN CELSIUS
  VRB    - VARIABLE WIND DIRECTION
  N/A    - NOT AVAILABLE




USA.gov is the U.S. government's official web portal to all federal, state and local government web resources and services.